Time,TemperatureF,DewpointF,PressureIn,WindDirection,WindDirectionDegrees,WindSpeedMPH,WindSpeedGustMPH,Humidity,HourlyPrecipIn,Conditions,Clouds,dailyrainin,SoftwareType,DateUTC
2013-05-13 01:42:00,43.0,-99.9,29.54,WSW,247,4.0,9.0,0,-99.99,,,0.01,,2013-05-13 05:42:00,
2013-05-13 01:52:00,43.0,-99.9,29.54,WSW,247,4.0,9.0,0,-99.99,,,0.01,,2013-05-13 05:52:00,
2013-05-13 02:01:00,43.0,-99.9,29.54,WSW,247,4.0,9.0,0,-99.99,,,0.01,,2013-05-13 06:01:00,
2013-05-13 02:42:00,43.0,-99.9,29.54,NW,315,4.0,8.0,0,-99.99,,,0.01,,2013-05-13 06:42:00,
2013-05-13 02:52:00,43.0,-99.9,29.54,NW,315,4.0,8.0,0,-99.99,,,0.01,,2013-05-13 06:52:00,
2013-05-13 03:01:00,43.0,-99.9,29.54,NW,315,4.0,8.0,0,-99.99,,,0.01,,2013-05-13 07:01:00,
2013-05-13 03:42:00,42.0,-99.9,29.56,West,270,6.0,14.0,0,-99.99,,,-99.99,,2013-05-13 07:42:00,
2013-05-13 03:52:00,42.0,-99.9,29.56,West,270,6.0,14.0,0,-99.99,,,-99.99,,2013-05-13 07:52:00,
2013-05-13 04:02:00,42.0,-99.9,29.56,West,270,6.0,14.0,0,-99.99,,,-99.99,,2013-05-13 08:02:00,
2013-05-13 04:42:00,40.0,-99.9,29.56,West,270,6.0,14.0,0,-99.99,,,0.01,,2013-05-13 08:42:00,
2013-05-13 04:52:00,40.0,-99.9,29.56,West,270,6.0,14.0,0,-99.99,,,0.01,,2013-05-13 08:52:00,
2013-05-13 05:01:00,40.0,-99.9,29.56,West,270,6.0,14.0,0,-99.99,,,0.01,,2013-05-13 09:01:00,
2013-05-13 05:03:00,34.0,-99.9,29.58,WSW,247,0.0,11.0,0,-99.99,,,0.01,,2013-05-13 09:03:00,
2013-05-13 05:42:00,34.0,-99.9,29.58,WSW,247,0.0,11.0,0,-99.99,,,0.01,,2013-05-13 09:42:00,
2013-05-13 05:52:00,34.0,-99.9,29.58,WSW,247,0.0,11.0,0,-99.99,,,0.01,,2013-05-13 09:52:00,
2013-05-13 06:03:00,37.0,-99.9,29.60,WSW,247,3.0,10.0,0,-99.99,,,0.01,,2013-05-13 10:03:00,
2013-05-13 06:43:00,37.0,-99.9,29.60,WSW,247,3.0,10.0,0,-99.99,,,0.01,,2013-05-13 10:43:00,
2013-05-13 06:53:00,37.0,-99.9,29.60,WSW,247,3.0,10.0,0,-99.99,,,0.01,,2013-05-13 10:53:00,
2013-05-13 07:42:00,40.0,-99.9,29.61,WNW,292,5.0,23.0,0,-99.99,,,0.01,,2013-05-13 11:42:00,
2013-05-13 07:52:00,40.0,-99.9,29.61,WNW,292,5.0,23.0,0,-99.99,,,0.01,,2013-05-13 11:52:00,
2013-05-13 08:02:00,40.0,-99.9,29.61,WNW,292,5.0,23.0,0,-99.99,,,0.01,,2013-05-13 12:02:00,
2013-05-13 08:42:00,41.0,-99.9,29.62,WSW,247,12.0,27.0,0,-99.99,,,-99.99,,2013-05-13 12:42:00,
2013-05-13 08:52:00,41.0,-99.9,29.62,WSW,247,12.0,27.0,0,-99.99,,,-99.99,,2013-05-13 12:52:00,
2013-05-13 09:01:00,41.0,-99.9,29.62,WSW,247,12.0,27.0,0,-99.99,,,-99.99,,2013-05-13 13:01:00,
2013-05-13 09:42:00,40.0,-99.9,29.65,West,270,5.0,28.0,0,-99.99,,,0.01,,2013-05-13 13:42:00,
2013-05-13 09:52:00,40.0,-99.9,29.65,West,270,5.0,28.0,0,-99.99,,,0.01,,2013-05-13 13:52:00,
2013-05-13 10:02:00,40.0,-99.9,29.65,West,270,5.0,28.0,0,-99.99,,,0.01,,2013-05-13 14:02:00,
2013-05-13 10:42:00,42.0,-99.9,29.64,SW,225,13.0,25.0,0,-99.99,,,0.01,,2013-05-13 14:42:00,
2013-05-13 10:52:00,42.0,-99.9,29.64,SW,225,13.0,25.0,0,-99.99,,,0.01,,2013-05-13 14:52:00,
2013-05-13 11:01:00,42.0,-99.9,29.64,SW,225,13.0,25.0,0,-99.99,,,0.01,,2013-05-13 15:01:00,
2013-05-13 11:03:00,43.0,-99.9,29.66,WSW,247,17.0,28.0,0,-99.99,,,0.01,,2013-05-13 15:03:00,
2013-05-13 11:42:00,43.0,-99.9,29.66,WSW,247,17.0,28.0,0,-99.99,,,0.01,,2013-05-13 15:42:00,
2013-05-13 11:53:00,43.0,-99.9,29.66,WSW,247,17.0,28.0,0,-99.99,,,0.01,,2013-05-13 15:53:00,
2013-05-13 12:34:00,46.0,-99.9,29.66,SW,225,9.0,26.0,0,-99.99,,,0.01,,2013-05-13 16:34:00,
2013-05-13 12:43:00,46.0,-99.9,29.66,SW,225,9.0,26.0,0,-99.99,,,0.01,,2013-05-13 16:43:00,
2013-05-13 12:53:00,46.0,-99.9,29.66,SW,225,9.0,26.0,0,-99.99,,,0.01,,2013-05-13 16:53:00,
2013-05-13 13:02:00,46.0,-99.9,29.66,SW,225,9.0,26.0,0,-99.99,,,0.01,,2013-05-13 17:02:00,
2013-05-13 13:03:00,45.0,-99.9,29.68,WSW,247,13.0,29.0,0,-99.99,,,0.01,,2013-05-13 17:03:00,
2013-05-13 13:42:00,45.0,-99.9,29.68,WSW,247,13.0,29.0,0,-99.99,,,0.01,,2013-05-13 17:42:00,
2013-05-13 13:54:00,45.0,-99.9,29.68,WSW,247,13.0,29.0,0,-99.99,,,0.01,,2013-05-13 17:54:00,
2013-05-13 15:44:00,47.0,-99.9,29.72,NW,315,7.0,30.0,0,-99.99,,,0.01,,2013-05-13 19:44:00,
2013-05-13 15:53:00,47.0,-99.9,29.72,NW,315,7.0,30.0,0,-99.99,,,0.01,,2013-05-13 19:53:00,
2013-05-13 16:02:00,47.0,-99.9,29.72,NW,315,7.0,30.0,0,-99.99,,,0.01,,2013-05-13 20:02:00,
2013-05-13 16:03:00,48.0,-99.9,29.72,West,270,14.0,23.0,0,-99.99,,,0.01,,2013-05-13 20:03:00,
2013-05-13 16:44:00,48.0,-99.9,29.72,West,270,14.0,23.0,0,-99.99,,,0.01,,2013-05-13 20:44:00,
2013-05-13 16:53:00,48.0,-99.9,29.72,West,270,14.0,23.0,0,-99.99,,,0.01,,2013-05-13 20:53:00,
2013-05-13 17:03:00,49.0,-99.9,29.73,WSW,247,16.0,27.0,0,-99.99,,,0.00,,2013-05-13 21:03:00,
2013-05-13 17:44:00,49.0,-99.9,29.73,WSW,247,16.0,27.0,0,-99.99,,,0.00,,2013-05-13 21:44:00,
2013-05-13 17:53:00,49.0,-99.9,29.73,WSW,247,16.0,27.0,0,-99.99,,,0.00,,2013-05-13 21:53:00,
2013-05-13 18:43:00,48.0,-99.9,29.75,West,270,12.0,27.0,0,-99.99,,,0.00,,2013-05-13 22:43:00,
2013-05-13 18:52:00,48.0,-99.9,29.75,West,270,12.0,27.0,0,-99.99,,,0.00,,2013-05-13 22:52:00,
2013-05-13 19:02:00,48.0,-99.9,29.75,West,270,12.0,27.0,0,-99.99,,,0.00,,2013-05-13 23:02:00,
2013-05-13 19:03:00,45.0,-99.9,29.78,SW,225,11.0,23.0,0,-99.99,,,0.00,,2013-05-13 23:03:00,
2013-05-13 19:42:00,45.0,-99.9,29.78,SW,225,11.0,23.0,0,-99.99,,,0.00,,2013-05-13 23:42:00,
2013-05-13 19:54:00,45.0,-99.9,29.78,SW,225,11.0,23.0,0,-99.99,,,0.00,,2013-05-13 23:54:00,
2013-05-13 21:03:00,43.0,-99.9,29.82,SW,225,6.0,15.0,0,-99.99,,,0.00,,2013-05-14 01:03:00,
2013-05-13 21:43:00,43.0,-99.9,29.82,SW,225,6.0,15.0,0,-99.99,,,0.00,,2013-05-14 01:43:00,
2013-05-13 21:53:00,43.0,-99.9,29.82,SW,225,6.0,15.0,0,-99.99,,,0.00,,2013-05-14 01:53:00,
2013-05-13 22:42:00,38.0,-99.9,29.85,SSW,202,1.0,10.0,0,-99.99,,,0.00,,2013-05-14 02:42:00,
2013-05-13 22:52:00,38.0,-99.9,29.85,SSW,202,1.0,10.0,0,-99.99,,,0.00,,2013-05-14 02:52:00,
2013-05-13 23:01:00,38.0,-99.9,29.85,SSW,202,1.0,10.0,0,-99.99,,,0.00,,2013-05-14 03:01:00,
2013-05-13 23:03:00,36.0,-99.9,29.87,SSW,202,2.0,10.0,0,-99.99,,,0.00,,2013-05-14 03:03:00,
2013-05-13 23:43:00,36.0,-99.9,29.87,SSW,202,2.0,10.0,0,-99.99,,,0.00,,2013-05-14 03:43:00,
2013-05-13 23:53:00,36.0,-99.9,29.87,SSW,202,2.0,10.0,0,-99.99,,,0.00,,2013-05-14 03:53:00,